SCP
0 0 -0 -0 -0 -0 0 0 0 0 0 0 0 0 0 0 0 0 0 -0 -0 -0 -0 -0 -0 -0 -0 -0 -0 -0 -0 -0 -0 -0 -0 -0 -0 -0 -0 -0 -0 -0 -0 -0 -0 -0 -0 -0 -0
0 -0 -0 -0 -0 0 -0 -0 0 0 0 0 0 0 0 0 0 0 0 -0 0 0 -0 -0 -0 -0 -0 -0 -0 -0 -0 -0 -0 -0 -0 -0 -0 -0 -0 -0 -0 -0 -0 -0 -0 -0 -0 -0 -0
-0 -0 -0 -0 -0 0 -0 -0 0 0 0 0 0 0 0 0 0 0 0 -0 -0 -0 -0 -0 -0 -0 -0 -0 -0 -0 -0 -0 -0 -0 -0 -0 -0 -0 0 -0 -0 -0 -0 -0 -0 -0 -0 -0 -0
-0 -0 -0 -0 -0 -0 -0 -0 0 0 0 0 0 -0 0 0 0 0 0 -0 -0 -0 -0 -0 -0 -0 -0 -0 -0 -0 -0 -0 -0 -0 -0 -0 -0 0 0 -0 -0 -0 -0 -0 -0 -0 -0 -0 -0
0 -0 0 0 0 -0 -0 0 -0 0 0 0 0 0 0 0 0 0 -0 -0 -0 -0 -0 -0 -0 -0 -0 -0 -0 -0 -0 -0 -0 -0 -0 -0 -0 -0 0 0 -0 -0 -0 -0 -0 -0 -0 -0 -0
-0 -0 -0 0 0 0 -0 -0 -0 0 -0 0 -0 0 -0 -0 0 0 0 0 0 -0 -0 -0 -0 -0 -0 -0 -0 -0 -0 -0 -0 -0 -0 -0 -0 -0 -0 -0 -0 -0 -0 -0 -0 -0 -0 -0 -0
-0 -0 -0 -0 0 0 0 -0 -0 -0 -0 -0 -0 -0 0 -0 -0 -0 -0 -0 -0 -0 -0 -0 -0 -0 -0 -0 -0 -0 -0 -0 -0 -0 -0 -0 -0 -0 -0 -0 -0 -0 -0 -0 -0 -0 -0 -0 -0
0 -0 -0 -0 -0 0 0 -0 -0 -0 0 0 0 -0 -0 -0 -0 -0 -0 -0 -0 -0 -0 -0 -0 -0 -0 -0 -0 -0 -0 -0 -0 -0 -0 -0 -0 -0 -0 -0 -0 -0 -0 -0 -0 -0 -0 -0 -0
0 0 0 -0 -0 -0 0 0 0 0 -0 0 0 0 -0 -0 -0 -0 0 0 0 0 0 0 0 0 0 0 0 -0 -0 -0 -0 0 -0 0 0 0 0 0 -0 -0 -0 -0 -0 -0 -0 -0 -0
0 0 0 0 0 0 0 0 -0 0 0 0 0 0 0 0 0 -0 0 0 0 0 0 0 0 0 0 0 0 0 0 0 0 0 0 0 0 0 0 0 0 0 -0 -0 -0 -0 -0 0 0
0 0 0 0 0 0 0 0 0 0 0 0 -0 0 0 0 0 0 0 0 0 0 0 0 0 0 0 0 0 0 0 0 0 0 0 0 0 0 0 0 0 0 0 0 0 0 0 0 0
0 0 0 0 0 0 0 0 0 0 0 0 0 0 0 0 0 0 0 0 0 0 0 0 0 0 0 0 0 0 0 0 0 0 0 0 0 0 0 0 0 0 0 0 0 0 0 0 0
0 0 0 0 0 0 0 0 0 0 0 0 0 0 0 0 0 0 0 0 0 0 0 0 0 0 0 0 0 0 0 0 0 0 0 0 0 0 0 0 0 0 0 0 0 0 0 0 0
0 0 0 0 0 0 0 0 0 0 0 0 0 0 0 0 0 0 0 0 0 0 0 0 0 0 0 0 0 0 0 0 0 0 0 0 0 0 0 0 0 0 0 0 0 0 0 0 0
0 0 0 0 0 0 0 0 0 0 0 0 0 0 0 0 0 0 0 0 0 0 0 0 0 0 0 0 0 0 0 0 0 0 0 0 0 0 0 0 0 0 0 0 0 0 0 0 0
0 0 0 0 0 0 0 0 0 0 0 0 0 0 0 0 0 0 0 0 0 0 0 0 0 0 0 0 0 0 0 0 0 0 0 0 0 0 0 0 0 0 0 0 0 0 0 0 0
0 0 0 0 0 0 0 0 0 0 0 0 0 0 0 0 0 0 0 0 0 0 0 0 0 0 0 0 0 0 0 0 0 0 0 0 0 0 0 0 0 0 0 0 0 0 0 0 0
0 0 0 0 0 0 0 0 0 0 0 0 0 0 0 0 0 0 0 0 0 0 0 0 0 0 0 0 0 0 0 0 0 0 0 0 0 0 0 0 0 0 0 0 0 0 0 0 0
0 0 0 0 0 0 0 0 0 0 0 0 0 0 0 0 0 0 0 0 0 0 0 0 0 0 0 0 0 0 0 0 0 0 0 0 0 0 0 0 0 0 0 0 0 0 0 0 0
0 0 0 0 0 0 0 0 0 0 0 0 0 0 0 0 0 0 0 0 0 0 0 0 0 0 0 0 0 0 0 0 0 0 0 0 0 0 0 0 0 0 0 0 0 0 0 0 0
0 0 0 0 0 0 0 0 0 0 0 0 0 0 0 0 0 0 0 0 0 0 0 0 0 0 0 0 0 0 0 0 0 0 0 0 0 0 0 0 0 0 0 0 0 0 0 0 0
0 0 0 0 0 0 0 0 0 0 0 0 0 0 0 0 0 0 0 0 0 0 0 0 0 0 0 0 0 0 0 0 0 0 0 0 0 0 0 0 0 0 0 0 0 0 0 0 0
0 0 0 0 0 0 0 0 0 0 0 0 0 0 0 0 0 0 0 0 0 0 0 0 0 0 0 0 0 0 0 0 0 0 0 0 0 0 0 0 0 0 0 0 0 0 0 0 0
0 0 0 0 0 0 0 0 0 0 0 0 0 0 0 0 0 0 0 0 0 0 0 0 0 0 0 0 0 0 0 0 0 0 0 0 0 0 0 0 0 0 0 0 0 0 0 0 0
0 0 0 0 0 0 0 0 0 0 0 0 0 0 0 0 0 0 0 0 0 0 0 0 0 0 0 0 0 0 0 0 0 0 0 0 0 0 0 0 0 0 0 0 0 0 0 0 0
0 0 0 0 0 0 0 0 0 0 0 0 0 0 0 0 0 0 0 0 0 0 0 0 0 0 0 0 0 0 0 0 0 0 0 0 0 0 0 0 0 0 0 0 0 0 0 0 0
0 0 0 0 0 0 0 0 0 0 0 0 0 0 0 0 0 0 0 0 0 0 0 0 0 0 0 0 0 0 0 0 0 0 0 0 0 0 0 0 0 0 0 0 0 0 0 0 0
0 0 0 0 0 0 0 0 0 0 0 0 -0 -0 0 0 0 0 0 0 0 0 0 0 0 0 0 0 0 0 0 0 0 0 0 0 0 0 0 0 0 0 0 0 0 0 0 0 0
0 0 0 0 0 0 0 0 0 0 0 0 -0 0 0 0 0 0 -0 0 0 0 0 0 0 0 0 0 0 0 0 0 0 0 0 0 0 0 0 0 0 0 0 0 0 0 0 0 0
0 0 0 0 0 0 0 0 0 0 0 0 0 0 0 0 0 0 -0 0 0 0 0 0 0 0 0 0 0 0 0 0 0 0 0 0 0 0 0 0 0 0 0 0 0 0 0 0 0
Wind_Speed_500mb
8 5 2 2 9 11 2 4 3 5 2 5 12 8 12 8 5 6 40 26 26 27 28 26 26 28 26 26 25 23 23 19 20 23 29 33 36 36 36 34 31 30 29 26 24 23 22 22 24
7 4 1 7 10 7 8 6 12 9 19 34 24 14 8 4 10 25 27 24 27 30 28 28 26 25 23 20 18 19 20 15 19 20 25 29 33 33 33 32 31 30 28 27 23 21 20 20 20
8 4 1 9 7 8 8 8 8 15 25 7 10 8 8 12 23 26 22 27 33 30 26 27 26 23 20 19 17 16 15 12 14 17 21 24 28 31 35 35 31 29 29 28 24 22 21 20 20
7 3 11 9 3 5 6 9 11 21 4 8 17 12 10 13 20 21 31 30 30 28 27 26 25 23 21 19 18 15 12 8 10 14 17 20 23 29 33 34 31 29 28 29 27 24 23 22 21
6 5 8 8 4 3 6 13 33 10 5 11 8 9 11 17 19 22 34 34 26 28 27 25 24 22 20 20 18 15 12 7 6 11 13 16 20 26 32 36 39 32 27 27 27 27 26 26 24
3 6 9 3 4 5 3 18 17 9 10 13 8 18 11 19 24 26 36 38 33 25 23 22 23 21 19 19 17 14 12 10 9 10 11 12 16 21 26 30 36 37 30 29 27 26 26 25 24
11 8 8 9 6 2 9 23 10 17 14 11 15 12 10 29 30 32 39 39 38 36 34 30 25 26 23 20 16 13 13 11 10 9 10 8 11 15 19 22 31 34 34 32 29 27 25 24 25
7 11 8 7 11 8 11 22 11 19 9 19 19 9 9 39 36 37 39 39 39 39 38 37 33 28 25 23 20 16 14 13 12 11 8 6 6 9 13 13 22 27 29 29 26 27 26 24 23
6 9 5 13 14 9 20 9 13 11 17 23 19 12 10 40 41 41 41 41 42 43 42 39 35 33 32 28 22 21 18 18 16 14 11 9 7 6 5 8 13 16 18 24 25 24 22 24 24
9 8 17 12 11 7 15 11 27 13 15 18 20 26 20 40 46 45 46 44 45 46 46 43 41 35 35 32 28 25 23 22 18 17 15 12 10 10 8 2 1 6 10 12 14 16 18 18 20
5 9 11 6 6 8 14 9 20 16 8 27 37 35 31 43 50 47 45 44 41 44 46 46 45 42 41 38 36 32 32 28 24 21 20 18 16 13 15 11 7 5 6 6 5 6 10 11 12
6 4 5 4 2 7 10 9 11 28 16 17 31 30 37 46 52 52 50 47 46 45 45 47 48 47 43 46 43 39 39 35 30 27 27 25 22 22 24 22 8 11 11 7 3 3 3 5 7
5 3 2 2 3 3 7 9 15 25 38 21 20 32 40 46 48 48 46 46 46 46 45 46 47 47 48 49 49 43 43 40 37 37 36 33 25 26 19 23 14 16 12 7 4 2 1 1 4
4 3 1 4 5 6 5 4 6 14 31 32 30 35 44 48 47 49 51 51 51 47 47 47 48 48 49 51 50 48 46 42 47 43 42 39 33 33 30 25 19 20 20 11 8 6 3 2 4
4 2 8 6 6 5 6 12 21 39 23 31 35 40 48 52 52 56 49 49 48 48 49 48 48 48 50 50 52 50 52 49 45 43 42 41 41 37 38 33 25 25 22 17 14 11 9 8 10
7 10 4 3 9 4 10 16 19 22 40 41 39 43 51 55 57 55 53 52 51 52 52 49 48 47 47 48 53 50 50 47 44 43 43 39 40 39 36 31 30 29 24 22 16 16 16 16 17
12 6 7 14 17 4 9 12 8 8 25 47 49 51 55 58 62 61 58 57 56 56 55 52 50 48 47 47 52 50 49 46 46 46 45 42 43 49 37 35 34 29 23 22 20 20 18 22 23
12 7 8 9 4 4 8 24 22 26 20 40 46 55 63 69 74 63 61 61 61 62 60 57 55 50 47 46 52 52 48 51 49 43 47 44 46 38 44 37 31 27 27 26 25 24 26 22 21
11 7 8 8 7 8 15 20 21 40 34 51 61 59 65 73 69 68 66 66 66 68 68 65 61 55 50 51 55 58 55 55 52 52 49 51 49 48 43 36 33 32 30 26 27 30 27 29 24
6 6 11 10 6 6 16 29 27 20 32 59 70 74 76 74 74 73 71 75 76 73 71 69 66 60 55 54 55 61 55 56 54 52 51 48 46 42 40 39 36 36 33 32 30 27 28 26 25
9 12 10 13 6 8 9 17 18 16 44 65 72 76 75 83 86 84 79 80 81 81 78 73 70 65 59 59 61 62 58 59 62 61 57 53 43 46 45 40 39 38 35 34 32 26 19 19 21
13 16 11 7 4 9 3 12 14 13 20 19 61 72 87 91 91 90 85 85 89 86 81 77 73 69 64 61 62 66 66 71 67 58 56 54 46 51 46 42 43 43 41 34 31 28 22 17 15
13 10 13 7 6 7 5 2 13 4 14 27 40 74 81 80 78 77 79 79 81 90 88 82 78 73 68 65 67 65 66 66 63 60 59 57 54 53 49 49 49 46 40 36 32 29 26 22 17
16 12 11 9 5 10 21 15 21 13 20 13 30 65 66 61 53 51 52 55 64 74 87 86 82 77 73 70 70 72 71 69 69 69 66 62 58 58 57 56 52 46 42 38 35 30 24 17 14
5 11 4 6 1 20 4 9 36 7 17 23 29 63 51 37 29 28 33 41 50 62 77 90 85 82 78 74 73 73 72 70 68 68 67 63 66 67 67 62 56 51 45 39 32 27 21 16 13
18 16 12 16 9 11 6 15 15 20 33 55 58 66 60 50 36 34 32 36 43 51 65 87 90 86 81 76 77 73 71 71 71 69 71 67 68 70 70 65 58 52 45 38 33 27 21 17 12
14 16 8 3 4 5 11 16 18 21 23 29 51 46 54 41 30 28 29 34 40 48 59 80 89 86 81 78 78 75 73 76 76 72 71 70 73 75 73 67 61 53 46 39 32 25 21 18 12
13 13 6 3 6 10 12 12 16 11 22 27 21 52 53 34 26 22 24 27 32 39 49 66 84 86 82 80 79 76 76 78 76 71 72 73 77 79 75 69 61 54 48 40 34 29 23 17 13
6 10 4 8 9 10 5 16 17 26 24 19 19 22 15 12 18 18 17 22 28 35 44 60 79 86 83 79 79 77 79 78 74 72 73 78 81 81 75 69 62 55 48 42 36 29 23 18 13
5 10 15 9 10 7 5 33 9 18 14 21 28 15 10 10 13 11 12 19 28 33 42 57 75 84 82 79 82 80 79 79 78 79 79 83 85 81 75 69 62 56 49 43 36 30 24 19 13
Wind_Direction_500mb
244 253 255 15 57 65 329 225 184 146 216 170 134 158 152 75 126 187 147 143 150 158 153 147 148 144 138 132 125 116 105 99 79 70 66 67 68 68 67 69 70 69 72 70 67 68 66 67 63
208 193 166 91 88 83 265 265 180 200 135 116 103 101 70 85 106 137 152 159 160 162 157 155 155 153 145 135 124 113 108 100 80 73 67 72 75 73 72 71 70 71 72 75 75 75 72 69 66
171 189 143 90 111 160 195 215 192 136 139 117 115 97 113 123 131 144 154 158 157 164 163 161 162 162 154 146 138 128 117 116 88 82 79 77 70 65 60 59 63 70 73 75 75 71 70 66 61
175 138 64 80 137 214 200 178 164 142 231 150 136 87 124 147 152 148 148 147 158 167 169 168 169 168 166 159 155 150 141 126 84 91 86 79 68 63 59 53 53 62 70 75 78 79 82 80 75
166 83 57 81 294 260 254 165 159 167 134 139 152 172 150 161 163 155 157 154 167 173 174 177 174 173 173 170 168 161 157 140 108 104 104 88 73 63 58 57 57 53 61 70 75 77 78 81 82
96 78 64 161 260 324 137 169 162 171 154 158 151 146 156 170 163 159 162 160 165 177 182 187 186 182 174 180 179 175 170 158 140 127 119 95 71 67 63 67 58 55 61 63 66 70 73 73 75
122 81 166 158 184 316 173 174 187 177 166 198 160 136 188 175 167 165 168 169 172 175 187 185 198 192 186 186 187 189 182 169 155 151 141 107 85 71 69 67 60 63 68 67 65 62 64 68 67
116 93 113 201 186 231 180 169 212 179 177 159 173 197 207 186 176 174 178 181 182 184 191 192 201 205 205 198 198 200 201 195 187 176 162 150 120 95 81 62 60 61 76 68 64 64 64 62 61
112 65 169 198 151 231 168 155 176 187 160 178 201 223 218 188 185 183 186 190 194 195 200 203 203 204 204 206 212 210 208 206 200 199 194 197 181 145 129 50 61 70 77 69 61 60 65 62 59
89 114 213 190 190 205 191 179 169 171 180 214 219 222 220 194 196 195 197 198 200 203 207 210 212 211 210 208 215 213 219 220 221 213 207 211 214 194 178 242 16 109 94 85 71 61 65 61 55
124 169 188 211 230 223 191 202 179 165 229 218 218 215 211 197 203 206 207 211 214 213 216 220 222 228 219 215 215 220 221 221 214 211 207 217 212 227 218 211 275 212 163 142 84 52 55 51 41
95 105 160 173 222 164 173 173 205 207 220 237 232 230 215 204 208 212 214 216 219 222 224 226 226 229 227 221 220 224 225 227 220 217 232 232 215 216 232 205 247 267 208 189 188 151 44 52 42
81 176 175 246 260 273 194 221 226 239 235 245 232 221 218 214 216 218 220 222 225 227 230 230 231 231 229 228 231 220 224 222 221 222 229 231 233 229 228 205 247 258 243 244 256 224 100 114 7
119 143 304 278 263 260 227 246 237 247 237 237 236 229 222 222 222 220 222 225 226 229 231 231 232 233 233 232 228 222 218 220 224 226 226 231 233 229 219 216 244 244 238 228 220 198 173 145 67
99 16 335 228 229 246 207 293 239 241 250 239 236 229 225 225 225 228 232 234 233 232 233 235 234 234 234 233 229 223 219 220 222 224 221 223 227 229 223 238 237 247 235 230 216 227 172 157 138
51 49 24 284 163 258 148 263 269 261 242 241 237 231 229 229 232 232 233 235 235 235 235 236 236 236 236 232 226 222 218 220 222 221 219 224 222 222 236 229 241 233 233 215 213 178 175 164 149
9 229 199 313 201 133 171 257 267 270 231 241 239 239 238 237 236 235 235 236 237 239 239 239 239 238 236 230 220 218 215 217 218 223 222 221 224 230 217 232 245 232 220 202 184 183 180 160 147
204 218 247 242 210 186 234 257 271 264 255 252 253 248 246 246 246 243 241 240 238 238 239 240 240 238 234 225 219 209 210 218 218 215 218 218 209 225 230 233 234 215 199 189 184 186 167 162 154
138 179 222 249 241 184 238 261 260 270 254 255 253 252 251 250 255 247 243 242 241 239 238 238 239 238 233 219 215 207 209 213 217 218 222 222 226 224 226 225 212 201 192 191 183 177 171 159 156
145 185 248 281 246 198 273 265 262 234 248 248 252 252 249 252 252 250 241 239 240 241 240 238 237 236 234 222 218 213 211 212 214 217 215 217 221 227 218 211 207 200 191 185 179 183 177 169 166
212 192 220 228 330 244 315 279 253 255 239 252 254 255 255 253 253 252 246 242 241 240 239 238 236 234 231 222 214 210 209 213 215 212 216 218 221 214 209 206 204 196 186 184 177 177 182 185 186
239 206 174 184 63 251 122 287 281 247 246 233 251 254 256 255 254 255 255 247 244 244 240 237 233 232 229 223 213 215 220 210 211 216 214 216 215 211 206 202 195 188 184 185 181 176 182 185 193
224 131 160 136 174 323 176 256 251 301 266 258 250 253 257 260 264 264 263 259 251 243 239 235 229 228 227 220 216 216 216 220 216 215 216 214 213 208 201 193 188 187 184 185 184 184 185 189 192
150 83 58 53 98 278 179 165 261 201 218 260 258 260 263 266 270 271 268 261 252 244 237 232 228 226 225 220 216 214 215 214 217 214 212 210 209 202 193 188 188 188 189 191 188 186 185 185 182
143 107 305 327 39 241 68 168 251 306 258 225 246 265 274 273 271 271 264 256 251 242 232 227 225 225 223 219 215 215 215 219 221 218 212 213 207 199 191 189 189 191 193 191 191 190 188 184 184
200 166 172 210 202 263 136 228 249 242 260 252 257 262 269 272 281 282 269 257 252 245 233 226 223 223 222 219 215 213 215 219 220 223 221 217 215 204 194 191 193 194 194 194 194 192 188 184 185
195 208 240 82 94 359 232 278 293 255 267 263 254 261 266 271 276 276 268 263 255 247 237 227 222 223 224 221 217 214 216 219 220 220 220 218 214 202 197 195 195 195 196 196 195 193 193 187 181
175 165 79 340 196 249 265 264 227 272 245 253 262 257 268 277 266 270 272 267 262 251 239 229 225 227 226 222 217 215 220 221 221 220 222 217 206 202 199 198 198 198 197 197 197 195 190 186 188
137 207 175 141 161 193 287 262 214 220 223 226 246 252 266 264 254 250 260 264 260 249 239 229 223 225 225 224 218 216 219 221 220 220 221 216 207 204 203 202 200 200 200 199 198 194 194 194 199
286 239 167 150 219 242 170 268 159 219 271 238 248 266 275 259 255 255 258 262 259 252 242 228 223 225 226 225 220 217 219 220 221 220 220 214 208 206 205 204 203 203 203 203 202 202 201 205 214
Wind_Speed_850mb
8 5 2 2 9 11 2 4 3 5 2 5 12 8 12 8 5 6 40 26 26 27 28 26 26 28 26 26 25 23 23 19 20 23 29 33 36 36 36 34 31 30 29 26 24 23 22 22 24
7 4 1 7 10 7 8 6 12 9 19 34 24 14 8 4 10 25 27 24 27 30 28 28 26 25 23 20 18 19 20 15 19 20 25 29 33 33 33 32 31 30 28 27 23 21 20 20 20
8 4 1 9 7 8 8 8 8 15 25 7 10 8 8 12 23 26 22 27 33 30 26 27 26 23 20 19 17 16 15 12 14 17 21 24 28 31 35 35 31 29 29 28 24 22 21 20 20
7 3 11 9 3 5 6 9 11 21 4 8 17 12 10 13 20 21 31 30 30 28 27 26 25 23 21 19 18 15 12 8 10 14 17 20 23 29 33 34 31 29 28 29 27 24 23 22 21
6 5 8 8 4 3 6 13 33 10 5 11 8 9 11 17 19 22 34 34 26 28 27 25 24 22 20 20 18 15 12 7 6 11 13 16 20 26 32 36 39 32 27 27 27 27 26 26 24
3 6 9 3 4 5 3 18 17 9 10 13 8 18 11 19 24 26 36 38 33 25 23 22 23 21 19 19 17 14 12 10 9 10 11 12 16 21 26 30 36 37 30 29 27 26 26 25 24
11 8 8 9 6 2 9 23 10 17 14 11 15 12 10 29 30 32 39 39 38 36 34 30 25 26 23 20 16 13 13 11 10 9 10 8 11 15 19 22 31 34 34 32 29 27 25 24 25
7 11 8 7 11 8 11 22 11 19 9 19 19 9 9 39 36 37 39 39 39 39 38 37 33 28 25 23 20 16 14 13 12 11 8 6 6 9 13 13 22 27 29 29 26 27 26 24 23
6 9 5 13 14 9 20 9 13 11 17 23 19 12 10 40 41 41 41 41 42 43 42 39 35 33 32 28 22 21 18 18 16 14 11 9 7 6 5 8 13 16 18 24 25 24 22 24 24
9 8 17 12 11 7 15 11 27 13 15 18 20 26 20 40 46 45 46 44 45 46 46 43 41 35 35 32 28 25 23 22 18 17 15 12 10 10 8 2 1 6 10 12 14 16 18 18 20
5 9 11 6 6 8 14 9 20 16 8 27 37 35 31 43 50 47 45 44 41 44 46 46 45 42 41 38 36 32 32 28 24 21 20 18 16 13 15 11 7 5 6 6 5 6 10 11 12
6 4 5 4 2 7 10 9 11 28 16 17 31 30 37 46 52 52 50 47 46 45 45 47 48 47 43 46 43 39 39 35 30 27 27 25 22 22 24 22 8 11 11 7 3 3 3 5 7
5 3 2 2 3 3 7 9 15 25 38 21 20 32 40 46 48 48 46 46 46 46 45 46 47 47 48 49 49 43 43 40 37 37 36 33 25 26 19 23 14 16 12 7 4 2 1 1 4
4 3 1 4 5 6 5 4 6 14 31 32 30 35 44 48 47 49 51 51 51 47 47 47 48 48 49 51 50 48 46 42 47 43 42 39 33 33 30 25 19 20 20 11 8 6 3 2 4
4 2 8 6 6 5 6 12 21 39 23 31 35 40 48 52 52 56 49 49 48 48 49 48 48 48 50 50 52 50 52 49 45 43 42 41 41 37 38 33 25 25 22 17 14 11 9 8 10
7 10 4 3 9 4 10 16 19 22 40 41 39 43 51 55 57 55 53 52 51 52 52 49 48 47 47 48 53 50 50 47 44 43 43 39 40 39 36 31 30 29 24 22 16 16 16 16 17
12 6 7 14 17 4 9 12 8 8 25 47 49 51 55 58 62 61 58 57 56 56 55 52 50 48 47 47 52 50 49 46 46 46 45 42 43 49 37 35 34 29 23 22 20 20 18 22 23
12 7 8 9 4 4 8 24 22 26 20 40 46 55 63 69 74 63 61 61 61 62 60 57 55 50 47 46 52 52 48 51 49 43 47 44 46 38 44 37 31 27 27 26 25 24 26 22 21
11 7 8 8 7 8 15 20 21 40 34 51 61 59 65 73 69 68 66 66 66 68 68 65 61 55 50 51 55 58 55 55 52 52 49 51 49 48 43 36 33 32 30 26 27 30 27 29 24
6 6 11 10 6 6 16 29 27 20 32 59 70 74 76 74 74 73 71 75 76 73 71 69 66 60 55 54 55 61 55 56 54 52 51 48 46 42 40 39 36 36 33 32 30 27 28 26 25
9 12 10 13 6 8 9 17 18 16 44 65 72 76 75 83 86 84 79 80 81 81 78 73 70 65 59 59 61 62 58 59 62 61 57 53 43 46 45 40 39 38 35 34 32 26 19 19 21
13 16 11 7 4 9 3 12 14 13 20 19 61 72 87 91 91 90 85 85 89 86 81 77 73 69 64 61 62 66 66 71 67 58 56 54 46 51 46 42 43 43 41 34 31 28 22 17 15
13 10 13 7 6 7 5 2 13 4 14 27 40 74 81 80 78 77 79 79 81 90 88 82 78 73 68 65 67 65 66 66 63 60 59 57 54 53 49 49 49 46 40 36 32 29 26 22 17
16 12 11 9 5 10 21 15 21 13 20 13 30 65 66 61 53 51 52 55 64 74 87 86 82 77 73 70 70 72 71 69 69 69 66 62 58 58 57 56 52 46 42 38 35 30 24 17 14
5 11 4 6 1 20 4 9 36 7 17 23 29 63 51 37 29 28 33 41 50 62 77 90 85 82 78 74 73 73 72 70 68 68 67 63 66 67 67 62 56 51 45 39 32 27 21 16 13
18 16 12 16 9 11 6 15 15 20 33 55 58 66 60 50 36 34 32 36 43 51 65 87 90 86 81 76 77 73 71 71 71 69 71 67 68 70 70 65 58 52 45 38 33 27 21 17 12
14 16 8 3 4 5 11 16 18 21 23 29 51 46 54 41 30 28 29 34 40 48 59 80 89 86 81 78 78 75 73 76 76 72 71 70 73 75 73 67 61 53 46 39 32 25 21 18 12
13 13 6 3 6 10 12 12 16 11 22 27 21 52 53 34 26 22 24 27 32 39 49 66 84 86 82 80 79 76 76 78 76 71 72 73 77 79 75 69 61 54 48 40 34 29 23 17 13
6 10 4 8 9 10 5 16 17 26 24 19 19 22 15 12 18 18 17 22 28 35 44 60 79 86 83 79 79 77 79 78 74 72 73 78 81 81 75 69 62 55 48 42 36 29 23 18 13
5 10 15 9 10 7 5 33 9 18 14 21 28 15 10 10 13 11 12 19 28 33 42 57 75 84 82 79 82 80 79 79 78 79 79 83 85 81 75 69 62 56 49 43 36 30 24 19 13
Wind_Direction_850mb
244 253 255 15 57 65 329 225 184 146 216 170 134 158 152 75 126 187 147 143 150 158 153 147 148 144 138 132 125 116 105 99 79 70 66 67 68 68 67 69 70 69 72 70 67 68 66 67 63
208 193 166 91 88 83 265 265 180 200 135 116 103 101 70 85 106 137 152 159 160 162 157 155 155 153 145 135 124 113 108 100 80 73 67 72 75 73 72 71 70 71 72 75 75 75 72 69 66
171 189 143 90 111 160 195 215 192 136 139 117 115 97 113 123 131 144 154 158 157 164 163 161 162 162 154 146 138 128 117 116 88 82 79 77 70 65 60 59 63 70 73 75 75 71 70 66 61
175 138 64 80 137 214 200 178 164 142 231 150 136 87 124 147 152 148 148 147 158 167 169 168 169 168 166 159 155 150 141 126 84 91 86 79 68 63 59 53 53 62 70 75 78 79 82 80 75
166 83 57 81 294 260 254 165 159 167 134 139 152 172 150 161 163 155 157 154 167 173 174 177 174 173 173 170 168 161 157 140 108 104 104 88 73 63 58 57 57 53 61 70 75 77 78 81 82
96 78 64 161 260 324 137 169 162 171 154 158 151 146 156 170 163 159 162 160 165 177 182 187 186 182 174 180 179 175 170 158 140 127 119 95 71 67 63 67 58 55 61 63 66 70 73 73 75
122 81 166 158 184 316 173 174 187 177 166 198 160 136 188 175 167 165 168 169 172 175 187 185 198 192 186 186 187 189 182 169 155 151 141 107 85 71 69 67 60 63 68 67 65 62 64 68 67
116 93 113 201 186 231 180 169 212 179 177 159 173 197 207 186 176 174 178 181 182 184 191 192 201 205 205 198 198 200 201 195 187 176 162 150 120 95 81 62 60 61 76 68 64 64 64 62 61
112 65 169 198 151 231 168 155 176 187 160 178 201 223 218 188 185 183 186 190 194 195 200 203 203 204 204 206 212 210 208 206 200 199 194 197 181 145 129 50 61 70 77 69 61 60 65 62 59
89 114 213 190 190 205 191 179 169 171 180 214 219 222 220 194 196 195 197 198 200 203 207 210 212 211 210 208 215 213 219 220 221 213 207 211 214 194 178 242 16 109 94 85 71 61 65 61 55
124 169 188 211 230 223 191 202 179 165 229 218 218 215 211 197 203 206 207 211 214 213 216 220 222 228 219 215 215 220 221 221 214 211 207 217 212 227 218 211 275 212 163 142 84 52 55 51 41
95 105 160 173 222 164 173 173 205 207 220 237 232 230 215 204 208 212 214 216 219 222 224 226 226 229 227 221 220 224 225 227 220 217 232 232 215 216 232 205 247 267 208 189 188 151 44 52 42
81 176 175 246 260 273 194 221 226 239 235 245 232 221 218 214 216 218 220 222 225 227 230 230 231 231 229 228 231 220 224 222 221 222 229 231 233 229 228 205 247 258 243 244 256 224 100 114 7
119 143 304 278 263 260 227 246 237 247 237 237 236 229 222 222 222 220 222 225 226 229 231 231 232 233 233 232 228 222 218 220 224 226 226 231 233 229 219 216 244 244 238 228 220 198 173 145 67
99 16 335 228 229 246 207 293 239 241 250 239 236 229 225 225 225 228 232 234 233 232 233 235 234 234 234 233 229 223 219 220 222 224 221 223 227 229 223 238 237 247 235 230 216 227 172 157 138
51 49 24 284 163 258 148 263 269 261 242 241 237 231 229 229 232 232 233 235 235 235 235 236 236 236 236 232 226 222 218 220 222 221 219 224 222 222 236 229 241 233 233 215 213 178 175 164 149
9 229 199 313 201 133 171 257 267 270 231 241 239 239 238 237 236 235 235 236 237 239 239 239 239 238 236 230 220 218 215 217 218 223 222 221 224 230 217 232 245 232 220 202 184 183 180 160 147
204 218 247 242 210 186 234 257 271 264 255 252 253 248 246 246 246 243 241 240 238 238 239 240 240 238 234 225 219 209 210 218 218 215 218 218 209 225 230 233 234 215 199 189 184 186 167 162 154
138 179 222 249 241 184 238 261 260 270 254 255 253 252 251 250 255 247 243 242 241 239 238 238 239 238 233 219 215 207 209 213 217 218 222 222 226 224 226 225 212 201 192 191 183 177 171 159 156
145 185 248 281 246 198 273 265 262 234 248 248 252 252 249 252 252 250 241 239 240 241 240 238 237 236 234 222 218 213 211 212 214 217 215 217 221 227 218 211 207 200 191 185 179 183 177 169 166
212 192 220 228 330 244 315 279 253 255 239 252 254 255 255 253 253 252 246 242 241 240 239 238 236 234 231 222 214 210 209 213 215 212 216 218 221 214 209 206 204 196 186 184 177 177 182 185 186
239 206 174 184 63 251 122 287 281 247 246 233 251 254 256 255 254 255 255 247 244 244 240 237 233 232 229 223 213 215 220 210 211 216 214 216 215 211 206 202 195 188 184 185 181 176 182 185 193
224 131 160 136 174 323 176 256 251 301 266 258 250 253 257 260 264 264 263 259 251 243 239 235 229 228 227 220 216 216 216 220 216 215 216 214 213 208 201 193 188 187 184 185 184 184 185 189 192
150 83 58 53 98 278 179 165 261 201 218 260 258 260 263 266 270 271 268 261 252 244 237 232 228 226 225 220 216 214 215 214 217 214 212 210 209 202 193 188 188 188 189 191 188 186 185 185 182
143 107 305 327 39 241 68 168 251 306 258 225 246 265 274 273 271 271 264 256 251 242 232 227 225 225 223 219 215 215 215 219 221 218 212 213 207 199 191 189 189 191 193 191 191 190 188 184 184
200 166 172 210 202 263 136 228 249 242 260 252 257 262 269 272 281 282 269 257 252 245 233 226 223 223 222 219 215 213 215 219 220 223 221 217 215 204 194 191 193 194 194 194 194 192 188 184 185
195 208 240 82 94 359 232 278 293 255 267 263 254 261 266 271 276 276 268 263 255 247 237 227 222 223 224 221 217 214 216 219 220 220 220 218 214 202 197 195 195 195 196 196 195 193 193 187 181
175 165 79 340 196 249 265 264 227 272 245 253 262 257 268 277 266 270 272 267 262 251 239 229 225 227 226 222 217 215 220 221 221 220 222 217 206 202 199 198 198 198 197 197 197 195 190 186 188
137 207 175 141 161 193 287 262 214 220 223 226 246 252 266 264 254 250 260 264 260 249 239 229 223 225 225 224 218 216 219 221 220 220 221 216 207 204 203 202 200 200 200 199 198 194 194 194 199
286 239 167 150 219 242 170 268 159 219 271 238 248 266 275 259 255 255 258 262 259 252 242 228 223 225 226 225 220 217 219 220 221 220 220 214 208 206 205 204 203 203 203 203 202 202 201 205 214